[Date Prev][Date Next][Thread Prev][Thread Next] - [Date Index][Thread Index][Author Index]
2 Line ISS Keps 5-18
- Subject: [sarex] 2 Line ISS Keps 5-18
- From: "Dr Dave Larsen [ PhD ]" <doc@xxxxxxxxxxx>
- Date: Fri, 18 May 2001 05:12:12 -0700
ISS
1 25544U 98067A 01138.46487093 .00029872 00000-0 36547-3 0 9800
2 25544 51.5710 238.6159 0017707 59.8668 19.9496 15.59949909142431
----
Via the sarex mailing list at AMSAT.ORG courtesy of AMSAT-NA.
To unsubscribe, send "unsubscribe sarex" to Majordomo@amsat.org
AMSAT Home